Presure
149 149 135 126 148 120 113 95 93 135 97 91 96 98 99 102 90 93 104 90 108 123 111 114 109 115 126 117 154 103 145 136 133 98 137 131 148 154 144 145 157 139 133
149 147 153 153 153 136 135 142 123 94 96 95 96 97 100 92 98 149 101 106 109 157 163 165 151 117 107 115 125 130 125 76 77 131 84 157 157 142 134 143 137 132 131
162 167 154 154 127 152 141 143 139 139 102 99 92 92 92 91 102 84 139 107 92 148 113 162 83 123 124 142 124 112 110 154 156 168 84 143 153 153 130 125 124 123 126
161 167 161 142 157 159 155 133 116 109 135 141 132 135 140 160 153 158 149 88 157 133 113 121 76 131 101 129 80 105 107 123 148 125 153 155 139 126 120 119 131 134 147
118 162 159 158 144 159 141 146 135 120 137 137 92 133 142 160 95 110 152 98 89 95 115 157 95 102 92 109 77 90 152 137 158 135 78 118 121 125 116 133 141 142 161
126 120 95 143 90 102 150 128 88 146 84 102 135 133 134 135 97 161 155 91 90 89 159 128 95 85 110 150 134 79 78 151 80 132 83 137 139 136 134 140 141 152 151
128 78 103 85 82 153 156 146 149 128 125 131 132 88 148 134 122 159 147 95 137 95 144 98 152 71 89 102 99 77 134 136 78 139 128 134 133 122 144 154 152 143 146
86 101 91 136 88 83 88 96 96 100 80 116 135 135 90 88 129 147 96 96 91 95 133 98 97 81 71 77 115 89 154 133 113 127 130 126 131 147 148 145 145 150 141
155 79 118 137 121 89 118 87 87 96 89 88 93 93 88 115 89 141 98 142 94 147 124 99 103 87 77 79 96 76 120 126 127 127 141 145 140 154 143 157 140 149 148
80 156 77 82 166 95 89 94 92 96 88 86 86 93 90 90 91 94 91 97 92 97 98 86 105 107 92 97 78 107 124 79 78 100 147 142 156 138 161 144 127 126 156
155 182 177 198 130 171 102 109 156 147 97 93 149 94 92 96 88 96 93 94 95 106 102 98 111 98 108 154 114 112 136 142 137 114 143 143 140 146 148 128 146 137 144
152 197 222 173 157 145 172 139 117 124 122 132 91 150 119 85 94 94 98 87 107 105 117 81 109 82 116 102 140 74 119 135 136 142 136 149 145 148 136 119 152 158 158
170 184 174 187 205 166 175 170 110 139 150 143 153 159 97 92 158 158 146 155 138 107 102 113 116 141 73 131 140 141 125 133 145 146 149 139 148 150 143 148 155 150 152
144 149 153 117 179 182 143 178 153 158 135 152 159 161 159 156 135 141 157 155 162 163 145 153 143 133 82 103 135 125 82 83 150 155 151 143 143 145 141 147 150 159 153
150 155 162 204 189 186 175 146 151 153 169 145 156 145 148 145 106 156 157 131 141 141 147 153 153 145 137 88 151 115 141 144 131 139 141 141 149 137 144 149 159 165 154
166 164 162 176 172 198 81 142 109 186 176 168 158 129 169 150 153 163 150 141 155 132 151 143 128 99 150 140 145 144 148 154 137 155 152 155 142 149 143 157 151 151 181
166 173 169 212 185 180 183 182 169 148 130 146 179 84 138 127 163 163 153 160 138 144 144 155 156 79 76 148 158 156 113 129 146 150 160 149 129 151 161 169 153 153 160
162 170 189 174 165 196 190 174 167 149 154 132 164 107 169 159 163 163 151 135 145 158 136 100 156 142 161 136 151 154 152 160 161 158 128 151 138 160 178 155 197 176 161
171 165 178 176 171 183 177 182 195 135 178 140 147 161 169 173 152 109 141 123 186 146 104 128 140 166 141 149 172 166 160 150 154 144 159 143 187 180 186 200 150 150 174
171 165 177 186 180 162 189 159 178 141 130 171 139 167 147 143 157 96 145 169 149 102 166 173 154 177 174 170 174 174 160 181 147 141 192 194 167 163 173 159 180 172 173
165 178 171 181 153 182 185 177 155 159 148 166 156 127 154 154 170 124 150 157 135 181 108 150 169 161 154 172 183 164 143 152 199 194 184 201 183 192 178 177 178 165 197
199 186 168 168 172 174 176 200 189 178 179 162 155 153 184 157 158 183 137 165 152 153 164 168 155 167 172 137 158 151 170 176 169 166 169 176 172 165 184 187 170 216 214
192 180 210 177 193 181 182 191 168 151 171 150 153 171 150 148 151 158 156 164 138 170 135 174 179 151 166 177 190 166 151 147 204 163 181 181 174 184 167 160 148 166 156
180 205 196 185 178 179 181 193 175 187 161 191 131 194 143 194 174 149 162 159 167 168 132 163 151 191 150 191 168 155 153 153 144 149 162 166 148 191 149 162 161 159 153
197 200 200 215 180 174 162 169 164 173 180 195 199 131 162 188 139 179 178 161 176 175 156 186 177 156 126 150 177 156 195 152 224 154 155 150 186 151 203 162 196 188 195
225 206 188 203 217 174 186 175 189 177 180 161 178 158 175 162 182 188 173 165 166 175 182 157 179 150 175 182 188 146 200 165 184 155 180 174 205 216 181 199 198 177 197
Wind_Speed
33 36 30 28 32 25 21 19 17 26 19 13 15 15 14 15 13 13 15 13 18 25 23 11 22 25 25 25 27 29 29 28 31 26 31 31 29 29 31 32 32 34 36
38 36 41 39 35 28 28 28 25 18 14 18 16 15 15 12 15 29 16 17 20 31 28 26 29 23 27 29 28 27 28 18 20 29 23 29 28 29 33 31 33 35 37
50 55 43 39 31 37 31 30 28 26 25 22 16 15 16 15 17 10 32 17 16 28 21 26 4 28 28 29 30 32 33 31 31 26 26 28 27 28 31 35 38 39 40
49 54 49 36 43 45 41 32 25 22 28 26 29 34 33 35 32 35 33 16 34 25 21 23 5 25 27 31 16 25 29 27 30 28 28 28 27 33 37 40 39 41 41
32 52 47 45 39 46 36 38 34 27 32 30 14 30 30 35 18 22 36 21 19 20 24 27 19 28 18 32 15 25 30 32 28 32 28 35 36 36 41 40 40 40 45
41 33 30 40 22 26 44 35 19 40 14 22 32 33 32 30 22 35 37 22 20 19 31 27 27 11 30 31 33 17 19 30 28 34 34 34 35 35 39 39 40 43 43
41 16 29 24 19 46 49 45 45 37 35 37 36 18 37 33 29 36 33 26 34 24 30 30 33 11 24 36 33 18 30 30 29 34 37 36 36 40 38 43 44 45 45
33 39 34 45 27 21 24 30 29 30 15 34 41 40 23 22 34 37 27 28 27 29 33 34 34 18 14 18 38 21 36 33 33 38 38 38 39 40 42 43 47 50 44
44 18 42 50 43 31 38 28 26 31 27 27 28 27 25 35 26 39 32 38 30 38 37 38 38 23 17 20 36 23 41 39 38 40 36 36 37 47 39 50 43 52 50
19 49 20 27 63 38 34 38 35 35 30 29 27 34 32 31 31 31 30 35 34 38 39 21 43 42 32 39 23 38 43 32 33 42 41 38 47 35 55 42 47 46 64
52 70 67 64 50 67 40 46 58 54 41 37 55 39 34 36 30 36 34 36 40 45 43 39 45 37 30 43 39 35 44 42 43 45 42 43 41 47 46 45 52 57 56
57 73 74 67 61 58 69 54 47 51 48 53 36 60 46 27 39 38 42 33 45 50 47 25 49 25 41 36 47 30 43 45 44 46 43 49 44 47 42 46 65 71 71
67 73 70 77 71 66 71 71 40 55 61 58 63 65 37 38 62 61 57 55 49 55 47 54 53 49 26 49 50 51 45 45 51 51 52 45 51 55 51 58 68 63 60
60 61 62 48 76 76 61 75 67 69 56 66 69 68 69 65 52 56 62 58 60 57 49 52 51 52 34 39 49 46 43 46 55 55 55 49 51 54 52 57 64 73 65
69 70 75 77 77 81 77 63 64 69 75 66 71 60 59 60 40 64 63 51 48 50 55 56 57 56 54 39 57 50 53 53 61 45 48 50 59 52 61 61 77 81 69
81 80 80 82 74 81 31 63 46 72 74 78 75 53 79 61 65 76 58 55 59 54 60 58 52 43 59 59 54 55 56 64 47 63 60 65 57 64 57 72 65 66 78
80 88 88 68 82 85 88 85 80 72 57 68 84 34 63 59 78 81 58 69 54 58 59 66 65 40 41 61 69 68 47 49 54 60 69 59 55 70 79 83 70 65 63
81 91 89 91 82 81 93 86 79 73 76 63 76 52 82 78 78 81 63 55 61 68 55 43 65 62 71 54 64 66 62 71 72 68 55 64 59 78 82 69 75 71 66
91 91 98 95 89 81 83 91 78 58 83 66 70 81 85 86 69 42 58 55 73 59 48 62 61 78 66 62 77 74 69 63 62 55 70 59 83 81 77 75 64 63 68
93 95 100 101 97 79 99 80 91 73 60 92 67 88 66 66 80 48 65 82 62 49 81 82 68 79 82 79 82 79 70 83 58 56 77 80 72 69 69 68 71 68 67
95 101 98 100 84 98 96 95 81 88 80 90 83 56 77 78 91 54 67 74 51 92 59 59 84 70 62 86 92 68 56 64 84 78 74 79 74 80 71 71 72 64 83
99 100 100 101 103 100 100 100 104 102 104 92 83 76 96 80 81 97 60 84 69 64 79 80 62 81 82 56 67 66 78 79 65 64 65 70 69 66 77 75 64 82 80
100 101 102 109 106 104 101 98 99 85 101 83 82 100 76 76 76 80 81 86 58 85 61 89 91 59 81 85 83 62 62 57 88 63 77 70 68 75 71 63 61 64 63
97 114 117 112 110 105 103 103 106 101 95 98 63 93 70 95 103 71 82 78 86 82 64 67 63 105 56 97 63 72 72 60 58 59 67 63 62 77 63 62 62 64 62
117 124 121 118 110 111 92 92 97 109 106 93 94 61 84 109 70 104 104 81 100 99 71 109 97 56 69 57 82 60 94 60 99 67 62 64 70 62 94 61 87 76 83
112 116 112 109 103 106 105 106 97 110 112 86 100 82 100 79 103 110 93 87 87 96 105 86 101 75 86 96 96 66 103 61 75 60 72 62 105 109 73 89 93 75 90
Wind_Direction
247 252 248 246 250 246 242 236 235 259 246 251 241 242 256 263 284 293 280 309 301 288 296 290 308 305 300 307 295 324 300 306 307 333 313 313 317 322 322 326 331 325 324
243 246 251 253 254 245 246 248 243 234 245 251 248 248 260 272 271 268 278 281 289 279 281 283 275 301 316 311 305 306 312 349 347 315 340 322 323 320 332 329 328 324 323
241 243 248 252 244 255 251 253 248 249 248 242 253 264 273 275 278 302 273 272 310 283 291 283 333 296 298 288 308 313 315 302 305 310 334 321 322 328 321 315 315 314 313
241 243 246 248 253 256 256 247 247 247 250 258 262 265 266 271 270 273 272 303 278 291 291 289 345 294 313 299 353 321 321 317 308 323 318 318 322 315 313 311 318 323 326
247 242 245 245 247 250 251 252 251 251 251 253 263 259 264 271 279 278 275 288 301 304 293 276 307 305 317 307 345 323 298 309 305 311 333 312 312 312 307 320 323 323 328
245 255 240 250 253 254 251 251 254 256 270 261 256 258 261 263 270 269 272 291 292 295 276 287 304 306 302 284 297 334 337 301 336 311 331 317 322 323 322 323 320 323 325
246 260 255 263 269 246 248 253 253 250 252 255 257 275 266 264 265 275 273 287 279 293 282 300 278 308 305 305 307 331 303 305 331 310 311 317 317 312 324 328 327 320 320
254 251 255 252 264 266 268 251 251 250 271 257 256 256 276 279 264 270 283 284 288 292 282 292 293 294 308 317 299 314 295 306 314 307 308 310 313 319 323 321 323 322 314
255 258 245 244 249 266 253 269 264 254 265 272 271 267 275 270 279 266 283 272 285 278 282 288 289 291 298 308 300 319 300 301 303 306 307 315 314 319 322 328 316 322 317
263 259 249 253 238 256 264 259 262 257 258 263 268 266 268 272 276 279 281 280 282 281 281 275 285 284 292 292 305 297 297 316 317 313 310 315 317 313 320 316 301 305 324
249 238 237 241 255 239 256 257 254 257 255 254 260 261 267 267 275 272 273 274 276 278 277 280 283 288 297 289 294 300 296 299 303 312 308 314 312 313 324 300 313 318 309
249 237 233 243 247 256 239 257 254 256 257 256 258 260 262 266 273 270 272 275 272 275 275 291 279 296 286 297 291 305 299 298 303 306 302 314 315 315 301 300 316 318 319
253 241 248 240 234 248 240 242 255 259 259 263 254 256 265 267 265 266 270 271 270 269 278 274 277 282 302 281 289 290 292 295 302 305 311 307 313 316 306 313 315 313 315
261 262 261 250 245 240 257 241 256 254 259 258 255 254 256 264 263 265 269 272 272 274 274 279 276 277 296 291 284 287 305 306 300 301 306 305 310 310 302 309 310 311 315
263 259 259 236 240 240 242 257 249 257 249 259 257 263 263 262 262 266 268 268 271 272 275 280 279 274 279 295 286 295 289 293 297 300 300 304 306 299 303 305 309 310 311
255 254 257 245 249 233 258 246 253 241 247 251 258 263 256 266 265 263 269 268 272 271 273 275 279 285 282 284 283 286 289 290 293 295 297 300 299 303 299 306 308 307 310
251 249 255 236 243 242 241 240 246 256 254 261 250 274 264 262 264 265 266 268 269 267 270 271 274 282 290 281 280 284 294 289 294 296 294 301 292 301 301 305 304 302 307
247 248 231 250 252 235 239 248 250 255 256 259 256 258 256 261 260 261 265 270 270 267 272 274 274 277 277 281 283 284 286 286 286 292 290 297 292 299 299 300 306 305 305
240 246 239 244 250 245 247 246 237 245 244 256 258 258 256 257 265 267 268 269 262 271 277 275 274 276 278 281 277 277 284 285 292 291 295 292 295 295 299 305 296 301 306
235 244 239 237 243 246 237 250 243 255 252 252 256 257 258 262 262 272 267 266 272 275 270 271 273 275 277 280 282 284 285 287 285 286 292 296 293 294 299 293 304 302 305
236 234 240 238 251 244 244 248 250 252 255 255 253 255 263 260 261 266 266 267 267 269 270 275 273 276 279 279 281 286 284 285 289 294 292 298 298 302 300 301 302 301 306
223 226 236 241 240 240 240 236 241 244 246 254 259 260 254 263 265 262 266 267 270 273 271 272 277 278 278 271 287 281 287 288 288 287 291 294 296 292 300 303 298 303 305
224 226 216 232 232 235 239 238 244 249 248 254 259 256 256 260 266 267 263 265 271 272 267 274 276 275 274 280 283 279 277 278 294 284 290 293 293 297 295 295 291 300 299
229 214 221 228 234 234 235 238 241 243 250 246 257 250 263 249 258 268 270 270 273 278 258 283 267 285 264 286 284 281 284 275 277 280 285 286 283 298 287 291 296 298 294
218 220 224 222 232 238 254 247 249 243 244 245 246 255 262 252 266 260 263 275 271 274 279 279 284 261 268 262 289 270 293 275 297 284 275 279 299 280 305 288 306 301 305
214 220 228 225 228 241 235 240 236 241 241 260 251 262 256 263 258 259 265 269 271 271 273 269 279 269 286 289 290 271 294 278 294 273 296 296 305 304 304 302 309 295 304